Regional Weather Roundup
Issued by NWS Boston, MA

Home | Current Version | Previous Version | Text Only | Print | Product List | Glossary On
Versions: 1 2 3 4 5 6 7 8 9 10 11 12 13 14 15 16 17 18 19 20 21 22 23 24 25 26 27 28 29 30 31 32 33 34 35 36 37 38 39 40 41 42 43 44 45 46 47 48 49 50
000
ASUS41 KBOX 252010
RWRBOX

REGIONAL WEATHER ROUNDUP
NATIONAL WEATHER SERVICE TAUNTON MA
400 PM EDT THU AUG 25 2016

NOTE:  "FAIR" INDICATES FEW OR NO CLOUDS BELOW 12,000 FEET WITH NO
SIGNIFICANT WEATHER AND/OR OBSTRUCTIONS TO VISIBILITY.

MAZALL-252100-
EASTERN MASSACHUSETTS

CITY           SKY/WX    TMP DP  RH WIND       PRES   REMARKS
BOSTON         PTSUNNY   87  62  43 SW16      29.97F
BEVERLY        CLOUDY    85  64  49 SW15      29.97F
LAWRENCE       CLOUDY    85  65  51 S8        29.98F
BEDFORD        MOSUNNY   86  62  44 S14G22    29.96F
BLUE HILL        N/A     83  63  50 S13G23    30.00F
NORWOOD        CLOUDY    87  62  43 SW10      29.98F
MARSHFIELD     PTSUNNY   82  63  51 SW10G21   30.00F
PLYMOUTH       CLOUDY    81  62  52 S13G23    30.02F
TAUNTON        CLOUDY    81  63  54 SW13G21   30.02F
NEW BEDFORD    CLOUDY    82  65  56 S17       30.03F
$$

MAZALL-252100-
CAPE COD AND THE ISLANDS

CITY           SKY/WX    TMP DP  RH WIND       PRES   REMARKS
FALMOUTH       CLOUDY    79  64  61 SW22G28   30.05
HYANNIS        MOSUNNY   77  66  68 S16G24    30.03F
CHATHAM        CLOUDY    76  68  76 SW14G23   30.06F
PROVINCETOWN   MOSUNNY   76  65  68 SW14      30.04S
NANTUCKET      CLOUDY    74  67  78 S13       30.07F
MARTHAS VNYRD  CLOUDY    77  67  71 SW16G25   30.06F
$$

MAZALL-252100-
CENTRAL AND WESTERN MASSACHUSETTS

CITY           SKY/WX    TMP DP  RH WIND       PRES   REMARKS
WORCESTER      MOSUNNY   80  63  55 SW16G22   30.03F
FITCHBURG      MOSUNNY   84  64  50 S13G18    29.99F
ORANGE         CLOUDY    80  65  59 S13       29.99F
SPRINGFIELD    PTSUNNY   83  66  54 S15G22    29.98F
WESTFIELD      CLOUDY    82  67  60 S10       29.98F
NORTH ADAMS    CLOUDY    80  66  62 VRB7      29.98S
PITTSFIELD     CLOUDY    77  66  68 SW10      30.00F
$$

RIZALL-252100-
RHODE ISLAND

CITY           SKY/WX    TMP DP  RH WIND       PRES   REMARKS
PROVIDENCE     PTSUNNY   82  64  54 SW12G22   30.03F
NEWPORT        MOSUNNY   78  66  66 SW13G18   30.04F
BLOCK ISLAND   MOSUNNY   77  68  73 SW16      30.06F
SMITHFIELD     CLOUDY    81  66  60 SW8       30.03F
WESTERLY       MOSUNNY   79  63  57 S15       30.06F
$$

CTZALL-252100-
CONNECTICUT

CITY           SKY/WX    TMP DP  RH WIND       PRES   REMARKS
BRADLEY INTL   CLOUDY    84  65  52 S15       30.00F
HARTFORD       SUNNY     86  65  49 SW16      30.00F
BRIDGEPORT     MOSUNNY   82  67  60 S13       30.02F
DANBURY        MOSUNNY   80  65  59 S12       30.04F
GROTON         MOSUNNY   79  68  69 S12       30.04F
NEW HAVEN      MOSUNNY   81  67  62 S13       30.03F
CHESTER        FAIR      79  64  61 S14G21    30.04F
MERIDEN        SUNNY     84  64  50 S17G23    30.01F
WILLIMANTIC    MOSUNNY   83  66  56 S12G21    30.02F
OXFORD         MOSUNNY  N/A N/A N/A SW12G17   30.07F
$$

MEZ002-015-021-024-NHZ003-005-008-011-012-014-VTZ005-008-252100-
NORTHERN NEW ENGLAND

CITY           SKY/WX    TMP DP  RH WIND       PRES   REMARKS
PORTLAND ME    PTSUNNY   78  64  61 S10       29.94F
BANGOR ME      PTSUNNY   79  66  64 S13       29.92F
CONCORD NH     CLOUDY    85  66  53 S9        29.96F
MANCHESTER NH  PTSUNNY   84  64  50 S12       29.95F
NASHUA NH      CLOUDY    84  67  56 VRB6      29.97F
PORTSMOUTH NH  PTSUNNY   84  65  53 S10       29.94F
JAFFREY NH     CLOUDY    79  64  60 S7        30.02F
KEENE NH       MOSUNNY   79  69  71 VRB5      29.98S
BURLINGTON VT  MOSUNNY   82  67  60 S16G25    29.90S
MT. WASHINGTON FOG       55  55 100 SW46G52     N/A  VSB 0
$$

NYZ052-076-252100-
EASTERN NEW YORK

CITY           SKY/WX    TMP DP  RH WIND       PRES   REMARKS
ALBANY         LGT RAIN  74  72  93 CALM      29.97F FOG
NEW YORK CITY  PTSUNNY   84  67  56 S18       30.01F
$$

ANZALL-252100-
MARINE OBSERVATIONS

STATION/POSITION TIME  TEMP    WIND        PRES    VSBY  WAVE
                       AIR SEA DIR/SP/G                  HT/PER
                 (UTC) (F)     (DEG/KT/KT) (MB)    (MI)  (FT/S)
BOSTON BUOY      1950   75 69  180/ 14/ 16 1015.1F         2/ 3
BUZZARDS BAY     1900   73     210/ 13/ 14 1018.6F
NANTUCKET SOUND  1950   74 75  220/ 14/ 16 1017.7F         1/ 3
MASS BAY-STELLWA 1904   72 67  190/ 10/ 10 1015.5F  1 7/8  1/10
ISLE OF SHOALS   2000   75     190/ 14/ 15 1014.3F
S OF BLOCK IS    1925      75                N/A           3/ 9
$$

......................KEY.........................
  SKY/WX - SKY CONDITION/PRESENT WEATHER
  TMP    - TEMPERATURE IN FAHRENHEIT
  DWPT   - DEWPOINT IN FAHRENHEIT
  RH     - RELATIVE HUMIDITY IN PERCENT
  WIND   - DIRECTION AND SPEED IN MPH
  PRES   - MEAN SEA LEVEL PRESSURE IN INCHES OF HG
  WCI    - WIND CHILL INDEX
  VSB    - VISIBILITY IN MILES
  HX     - HEAT INDEX
  TC     - TEMPERATURE IN CELSIUS
  VRB    - VARIABLE WIND DIRECTION
  N/A    - NOT AVAILABLE



USA.gov is the U.S. government's official web portal to all federal, state and local government web resources and services.